Temperature
18 18 18 18 18 18 18 18 18 18 18 18 18 18 18 18 18 18 18 18 18 18 18 18 18 18 17 17 17 17 17 17 17 17 17 17 17 16 16 16 16 16 16
18 18 18 18 18 18 18 18 18 18 18 18 18 18 18 18 18 18 18 18 18 18 18 18 18 17 17 17 17 17 17 17 17 17 17 16 16 16 16 16 16 16 16
18 18 18 18 18 18 18 18 18 18 18 18 18 18 18 18 18 18 18 18 18 18 18 18 18 17 17 17 17 17 17 17 17 17 17 17 16 16 16 16 16 16 16
18 18 18 18 18 18 18 18 18 18 18 18 18 18 18 18 18 18 18 18 17 17 17 17 17 17 17 17 17 17 17 17 17 17 16 16 16 16 16 16 16 16 16
18 18 18 18 18 18 18 18 18 18 18 18 18 18 18 18 18 18 18 17 17 17 17 17 17 17 17 17 17 17 17 17 17 17 16 16 16 16 16 16 16 16 16
18 19 18 19 18 18 18 18 18 18 18 18 18 18 18 18 18 18 18 18 17 17 17 17 17 17 17 17 17 17 17 17 17 16 16 16 16 16 16 16 16 16 16
18 19 19 18 18 18 18 18 18 18 18 18 18 18 18 18 18 18 18 18 17 17 17 17 17 17 17 17 17 17 17 17 16 16 16 16 16 16 16 16 16 16 16
19 19 19 18 18 18 18 18 18 18 18 18 18 18 18 18 18 18 18 18 18 17 17 17 17 17 17 16 16 17 17 17 16 16 16 16 16 16 16 16 16 16 16
19 19 19 18 18 18 18 18 18 18 18 18 18 18 18 18 18 18 18 18 18 17 17 17 17 17 16 16 16 16 16 16 16 16 16 16 16 16 16 15 15 15 15
18 19 18 18 18 18 18 18 18 18 18 18 18 18 18 18 18 18 18 18 18 17 17 17 17 17 16 16 16 16 16 16 16 16 16 16 16 16 15 15 15 15 15
18 19 18 18 18 18 18 18 18 18 18 18 18 18 18 18 18 18 17 17 17 17 17 17 17 17 16 16 16 16 16 16 16 16 16 16 16 16 15 15 15 15 15
18 18 18 18 18 18 18 18 18 18 18 18 18 18 18 18 18 18 18 18 17 17 17 17 17 17 16 16 16 16 16 16 16 16 16 16 16 15 15 15 15 15 15
18 18 18 18 18 18 18 18 18 18 18 18 18 18 18 18 18 18 18 18 17 17 17 17 17 17 16 16 16 16 16 16 16 16 16 15 15 15 15 15 15 15 15
19 19 18 18 18 18 18 18 18 18 18 18 17 17 17 18 18 18 18 18 17 17 17 17 17 16 16 16 16 16 16 16 16 16 15 15 15 15 15 15 15 15 14
19 19 18 18 18 18 18 18 17 17 17 17 17 17 17 17 17 17 18 17 17 17 16 16 16 16 16 16 16 16 15 15 15 15 15 15 15 15 15 15 14 14 14
19 18 18 18 18 18 18 18 17 17 17 17 17 17 17 17 17 17 17 17 17 17 16 16 16 16 16 15 15 15 15 15 15 15 15 15 15 15 15 14 14 14 14
18 18 18 18 18 18 17 17 17 17 17 17 17 17 17 17 17 17 17 17 17 16 16 16 16 16 16 15 15 15 15 15 15 15 15 15 15 14 14 14 14 14 14
18 18 18 18 18 17 17 17 17 17 17 16 16 16 16 16 16 16 16 16 16 16 16 16 16 15 15 15 15 15 15 15 15 15 15 14 14 14 14 14 14 14 14
18 18 18 18 17 17 17 17 17 17 16 16 16 16 16 16 16 16 16 16 16 16 16 15 15 15 15 15 14 14 14 14 14 14 14 14 14 14 14 14 14 14 14
18 17 17 17 17 17 17 17 17 16 16 16 16 16 16 16 16 16 16 16 16 16 15 15 15 15 15 14 14 14 14 14 14 14 14 14 14 14 14 14 14 14 13
17 17 17 17 17 17 17 16 16 16 16 16 16 16 16 16 16 15 15 15 15 15 15 15 14 14 14 14 14 14 14 14 14 14 13 13 13 14 14 13 13 13 13
17 17 17 17 17 17 16 16 16 16 16 16 16 15 15 16 15 15 15 15 15 15 15 14 14 14 14 14 14 14 13 13 13 13 13 13 13 13 13 13 13 13 13
17 17 17 16 17 17 16 16 16 16 16 15 15 15 15 15 15 15 15 15 15 15 15 14 14 14 14 14 14 13 13 13 13 13 13 13 13 13 13 13 13 13 13
17 17 17 16 16 16 16 16 16 16 16 15 15 15 15 15 15 15 15 14 14 14 14 14 14 14 14 14 13 13 13 13 13 13 13 13 13 13 13 13 13 13 13
17 17 16 16 16 16 16 16 16 16 15 15 15 15 15 15 15 15 14 14 14 14 14 14 14 14 14 14 13 13 13 13 13 13 13 13 13 13 13 12 13 13 12
17 16 16 16 16 16 16 16 16 16 15 15 15 15 15 15 15 15 14 14 14 14 14 14 14 14 13 13 13 13 13 13 12 12 12 12 12 12 12 12 12 12 12
Wind_Speed
2 2 2 2 3 4 5 3 3 2 2 2 3 2 2 3 3 5 8 12 12 13 12 11 10 9 9 9 10 10 9 9 9 9 9 10 10 10 10 10 10 10 9
2 2 2 1 2 3 3 3 3 3 2 1 1 2 2 2 2 5 7 9 11 12 11 11 10 10 9 9 10 10 9 9 9 8 8 9 10 10 11 10 10 11 10
3 2 2 2 2 3 3 3 2 2 2 2 2 2 1 2 2 3 6 7 8 11 11 10 10 10 9 9 9 10 9 9 9 9 9 10 10 10 11 11 11 11 11
4 2 2 2 3 3 2 2 2 1 1 1 2 1 1 2 2 3 5 6 7 6 9 10 10 10 9 9 9 9 9 8 8 9 10 10 9 10 10 11 11 11 11
3 3 2 2 3 2 2 2 2 2 1 1 2 2 2 2 2 2 3 5 6 6 6 7 8 8 8 8 8 9 9 9 8 7 7 8 9 9 9 10 10 10 11
2 2 3 2 2 2 1 1 1 1 1 1 1 1 1 2 2 2 2 3 5 7 7 6 7 7 8 8 8 8 8 8 8 7 7 7 7 8 9 10 9 9 10
2 1 2 2 1 2 1 1 1 1 2 1 1 1 0 1 1 1 2 2 3 4 6 7 7 6 6 8 6 7 7 8 8 8 8 8 8 8 8 8 9 9 9
2 2 2 1 2 2 2 1 1 0 1 1 1 1 0 1 1 2 2 2 1 2 4 6 6 7 6 6 5 6 5 5 7 8 8 8 8 8 8 7 7 7 8
2 2 2 2 2 2 2 2 1 1 1 1 1 1 1 1 0 0 1 2 2 1 1 3 5 6 6 7 6 5 5 4 4 4 6 7 8 9 9 8 7 7 7
3 2 2 2 1 2 2 2 2 1 1 2 1 1 1 2 2 1 1 1 3 3 2 1 2 3 5 6 6 6 6 5 5 5 4 4 5 6 7 7 8 8 8
3 3 3 2 1 1 1 1 1 0 1 1 1 1 1 1 2 2 2 2 1 2 2 2 1 3 5 6 6 7 7 6 6 5 4 4 4 5 6 7 7 7 7
3 3 4 3 2 1 1 1 1 1 1 1 2 1 1 1 1 1 1 2 2 2 2 1 2 2 4 5 6 8 8 8 7 6 6 5 4 5 5 6 6 6 7
3 3 3 3 2 1 2 1 2 1 1 0 1 2 2 1 1 1 1 1 1 1 2 2 2 3 3 5 6 8 8 8 8 7 6 5 5 5 4 4 4 5 5
2 3 3 3 3 2 2 1 2 2 2 1 1 1 2 1 1 1 1 1 1 1 1 2 1 2 3 5 7 7 6 8 8 7 6 6 5 5 4 4 3 3 3
2 3 4 4 3 2 1 1 1 1 2 1 2 1 2 1 1 1 1 1 1 1 1 2 1 2 3 5 8 6 5 7 8 8 7 7 6 6 5 5 4 4 3
1 2 3 3 3 3 2 1 1 1 1 1 1 0 1 2 1 1 1 1 1 1 1 1 1 1 1 3 6 5 5 8 8 8 8 8 7 7 6 6 5 5 4
2 2 2 2 2 2 2 1 1 1 1 1 2 1 2 2 1 2 1 1 1 1 1 1 0 0 1 1 3 4 5 7 6 8 8 8 8 7 7 7 6 6 5
2 3 3 2 2 2 2 2 1 1 1 1 1 1 1 1 1 2 2 1 1 1 1 1 0 0 1 2 3 3 4 5 5 7 9 9 8 8 8 8 7 7 6
3 2 2 2 2 2 1 1 2 1 1 1 1 1 1 1 1 1 2 1 1 1 1 1 1 1 1 2 2 2 2 2 4 6 8 8 9 9 9 9 8 8 7
3 2 2 2 3 2 1 1 2 2 1 1 1 1 1 1 1 2 2 1 1 1 1 1 2 1 1 2 2 2 2 2 2 3 5 6 8 9 9 9 9 9 9
3 2 2 2 2 2 2 1 2 2 2 2 1 1 0 0 0 1 1 1 1 2 1 1 2 1 1 1 2 2 3 2 2 2 2 4 5 5 6 8 9 10 10
2 2 2 3 3 2 1 1 1 2 2 2 2 2 2 2 2 2 1 1 1 2 2 1 1 2 2 2 2 2 2 2 2 2 2 3 4 4 5 7 10 12 12
4 3 3 3 2 2 1 0 2 2 3 2 2 2 3 2 2 2 3 3 2 2 2 2 2 2 2 2 2 2 3 3 3 3 2 3 3 3 4 8 13 15 14
3 3 3 3 3 3 3 2 3 3 4 3 3 2 2 2 2 2 3 3 3 3 3 3 3 3 3 2 2 3 4 4 3 3 3 3 3 3 3 5 13 17 16
3 4 3 4 3 3 4 4 3 3 4 4 4 4 3 3 3 3 3 3 3 3 4 3 3 3 3 4 2 2 2 3 4 3 3 3 3 2 2 3 8 15 16
3 4 3 4 4 4 6 6 4 4 4 4 4 4 5 4 4 4 4 4 5 4 3 3 3 4 4 5 6 5 4 4 3 3 3 3 3 2 2 2 3 8 11
Wind_Direction
133 142 132 165 168 158 169 162 159 161 171 190 192 178 172 179 176 155 161 175 177 183 187 188 192 196 199 204 207 205 209 214 220 223 220 222 221 218 216 215 214 213 211
150 152 148 163 160 163 141 142 161 160 171 175 174 171 164 158 180 162 165 179 188 189 189 194 200 202 202 204 203 203 209 217 223 227 226 225 224 220 218 219 219 217 216
153 158 153 169 149 145 145 161 172 166 170 175 167 168 162 187 190 169 172 177 184 192 193 198 204 207 208 211 208 207 214 220 224 224 229 231 229 224 225 224 222 219 217
172 171 166 154 158 166 165 168 166 142 144 157 150 177 183 199 203 193 180 175 176 180 189 196 202 205 209 213 211 211 215 219 223 225 228 227 226 224 226 226 225 222 218
179 173 148 138 170 156 161 175 125 135 167 159 169 186 196 200 202 199 170 170 167 164 173 183 189 196 205 210 214 216 216 218 220 222 221 220 224 226 223 222 223 224 223
157 148 146 157 157 138 142 120 130 162 190 208 196 194 203 181 172 158 164 160 160 167 168 168 179 192 200 207 212 217 220 216 214 215 216 220 227 229 225 221 218 221 220
114 110 99 133 144 131 133 134 142 194 200 172 179 244 267 144 140 181 151 163 152 155 154 161 170 178 187 198 204 209 214 211 215 217 222 225 228 224 224 223 222 222 219
111 129 114 157 127 142 146 139 105 289 256 170 175 147 95 349 283 205 168 163 152 158 155 167 172 170 177 167 181 192 204 211 219 219 219 221 222 224 223 224 221 220 223
117 75 117 105 113 139 142 173 164 206 244 266 244 168 155 191 244 174 201 151 156 172 161 166 160 157 160 152 162 180 196 202 202 206 218 222 221 223 225 219 217 220 226
138 122 111 103 99 110 129 200 168 236 235 264 258 255 202 159 173 200 297 170 177 177 183 196 143 149 156 148 154 158 180 190 194 204 213 218 220 221 216 219 222 225 228
148 138 129 129 124 118 142 195 114 233 278 289 283 274 276 223 222 191 212 211 208 189 178 189 165 155 163 163 161 163 173 181 192 199 206 215 218 214 212 219 225 226 230
160 161 150 149 142 152 155 143 184 147 68 346 305 303 297 262 237 210 210 202 197 204 191 199 191 170 170 161 165 164 172 179 183 189 194 198 199 200 208 217 224 225 228
165 165 165 152 155 168 158 164 174 160 136 150 291 315 317 298 298 249 196 210 207 207 196 207 198 178 177 137 151 164 168 173 177 180 182 184 189 190 196 207 217 222 225
164 158 158 157 156 180 184 182 171 168 157 223 242 271 295 304 310 289 251 224 233 221 206 210 180 169 162 138 153 167 166 175 181 181 180 181 180 181 185 190 192 202 209
169 143 157 157 158 169 174 185 186 173 160 206 245 243 272 275 280 288 269 214 214 249 251 225 193 179 164 129 148 155 144 165 178 184 186 189 190 190 192 193 190 195 199
132 139 146 149 153 154 164 214 200 193 204 208 217 251 280 288 297 290 283 274 252 236 268 256 242 167 154 149 156 160 157 166 180 185 188 195 198 199 198 197 192 194 198
149 153 139 145 159 157 164 198 224 198 228 246 265 237 245 275 307 301 290 276 256 188 234 274 114 110 131 119 156 187 176 168 178 188 191 196 199 200 201 195 194 195 196
162 157 155 161 182 166 167 181 220 228 234 242 252 256 254 255 252 292 304 297 296 251 193 247 193 188 197 182 192 217 188 181 174 191 194 197 196 197 196 195 194 192 189
158 163 162 172 178 170 180 201 216 236 241 244 239 246 256 268 265 286 290 292 286 280 193 206 237 202 196 195 198 234 201 181 193 183 192 195 197 193 193 194 192 190 188
174 175 178 187 176 163 180 218 222 229 243 251 231 242 269 286 291 280 270 300 304 298 264 217 210 207 174 198 197 210 224 212 208 185 180 189 194 195 197 197 195 194 191
183 178 186 184 180 174 201 221 261 229 238 252 241 230 254 233 297 282 274 308 287 272 255 233 231 220 202 196 221 225 221 209 208 198 181 187 181 190 200 206 201 196 190
175 183 188 191 197 203 178 182 230 266 243 226 237 228 223 213 197 194 196 215 296 270 282 275 257 242 238 234 236 244 224 218 228 196 193 222 188 191 189 189 196 191 187
186 197 198 187 172 173 194 228 223 246 254 227 234 248 262 249 193 218 220 220 234 247 240 248 268 269 267 245 244 258 252 248 237 212 204 240 211 202 185 191 188 187 187
193 206 208 190 188 200 197 214 267 254 252 245 234 234 243 244 258 261 250 240 238 242 246 242 244 263 263 258 237 241 248 249 246 231 214 234 232 217 198 176 185 185 188
200 212 208 199 201 204 205 206 229 254 251 249 243 238 231 229 235 238 243 248 253 254 250 252 243 236 243 247 244 245 247 243 253 242 214 224 230 231 208 191 192 191 191
212 220 212 206 204 206 201 202 217 248 255 251 239 230 220 218 220 226 238 240 246 251 252 249 238 241 235 234 229 222 230 243 251 249 221 215 227 227 235 204 182 186 196
Height
1536 1536 1537 1538 1539 1540 1541 1542 1543 1544 1544 1545 1547 1547 1548 1549 1549 1550 1550 1551 1551 1552 1553 1553 1554 1555 1556 1556 1556 1558 1559 1561 1562 1562 1563 1564 1565 1566 1567 1568 1569 1570 1571
1535 1536 1537 1539 1540 1541 1542 1542 1543 1544 1544 1545 1546 1547 1548 1548 1548 1549 1549 1549 1550 1551 1552 1552 1553 1554 1555 1555 1555 1556 1557 1559 1560 1561 1561 1562 1563 1563 1564 1565 1566 1567 1568
1535 1536 1537 1538 1539 1540 1542 1542 1543 1544 1544 1545 1546 1546 1547 1547 1547 1547 1547 1548 1549 1549 1550 1551 1552 1553 1553 1554 1554 1555 1556 1557 1558 1559 1559 1560 1560 1561 1562 1562 1563 1564 1566
1535 1536 1537 1538 1539 1540 1541 1542 1543 1544 1544 1545 1545 1546 1546 1546 1546 1546 1546 1546 1547 1548 1549 1550 1551 1552 1552 1553 1553 1554 1554 1555 1556 1556 1557 1557 1558 1559 1559 1560 1561 1562 1563
1535 1536 1537 1538 1539 1540 1541 1542 1542 1543 1544 1544 1545 1545 1545 1546 1546 1546 1546 1547 1547 1548 1548 1549 1550 1550 1551 1551 1552 1552 1552 1553 1553 1554 1554 1555 1555 1556 1557 1557 1558 1559 1560
1535 1536 1537 1538 1539 1540 1541 1541 1542 1543 1543 1544 1545 1545 1545 1546 1546 1546 1546 1547 1547 1547 1548 1548 1549 1549 1549 1550 1550 1550 1550 1551 1551 1551 1552 1552 1553 1554 1555 1555 1556 1557 1557
1536 1536 1537 1538 1539 1540 1540 1541 1542 1542 1543 1544 1544 1545 1545 1545 1545 1546 1546 1546 1547 1548 1548 1548 1548 1548 1548 1548 1548 1548 1548 1548 1549 1549 1549 1550 1551 1552 1552 1553 1553 1554 1555
1536 1537 1537 1538 1538 1539 1540 1540 1541 1542 1543 1543 1544 1544 1545 1546 1545 1546 1546 1546 1547 1547 1548 1548 1548 1548 1547 1547 1547 1547 1547 1546 1547 1547 1547 1548 1548 1549 1550 1550 1551 1551 1552
1536 1536 1537 1537 1538 1538 1539 1540 1540 1541 1542 1543 1543 1544 1544 1544 1545 1545 1545 1546 1546 1547 1547 1547 1547 1547 1547 1546 1546 1545 1545 1545 1545 1545 1545 1546 1546 1547 1547 1548 1548 1549 1549
1535 1536 1536 1537 1537 1538 1538 1539 1539 1540 1541 1541 1542 1543 1543 1543 1544 1544 1545 1545 1545 1546 1546 1546 1546 1546 1545 1545 1545 1544 1544 1543 1543 1543 1544 1544 1544 1544 1545 1545 1546 1546 1547
1535 1535 1536 1536 1536 1537 1538 1538 1539 1539 1540 1540 1540 1541 1541 1542 1542 1543 1543 1543 1544 1544 1544 1544 1544 1544 1543 1543 1543 1543 1542 1542 1542 1541 1542 1542 1542 1542 1543 1543 1543 1544 1544
1534 1535 1535 1535 1536 1536 1537 1537 1538 1538 1538 1539 1539 1540 1540 1540 1540 1541 1541 1541 1541 1542 1542 1542 1542 1542 1542 1542 1541 1541 1540 1540 1540 1540 1540 1540 1540 1540 1540 1541 1541 1541 1541
1534 1534 1534 1535 1535 1535 1536 1536 1536 1537 1537 1537 1538 1538 1538 1539 1539 1539 1539 1539 1539 1539 1540 1540 1540 1540 1540 1540 1539 1539 1539 1538 1538 1538 1538 1538 1538 1538 1538 1538 1538 1538 1538
1533 1533 1533 1534 1534 1534 1535 1535 1535 1535 1536 1536 1536 1537 1537 1537 1538 1538 1538 1538 1538 1538 1538 1538 1538 1538 1538 1537 1537 1537 1537 1537 1536 1536 1536 1535 1535 1535 1535 1535 1535 1535 1535
1532 1532 1532 1532 1533 1533 1533 1534 1534 1534 1534 1534 1535 1535 1535 1535 1535 1536 1536 1536 1537 1536 1536 1535 1535 1535 1536 1535 1535 1535 1535 1534 1534 1534 1533 1533 1533 1533 1533 1533 1533 1533 1533
1530 1531 1531 1531 1531 1532 1532 1532 1533 1533 1533 1533 1533 1533 1533 1533 1533 1534 1534 1534 1534 1534 1534 1533 1533 1533 1533 1533 1533 1533 1532 1532 1532 1531 1531 1531 1530 1530 1530 1530 1530 1530 1530
1528 1529 1529 1530 1530 1530 1530 1531 1531 1531 1531 1531 1531 1531 1531 1531 1531 1532 1532 1532 1532 1532 1532 1531 1531 1531 1531 1531 1530 1530 1530 1529 1529 1529 1529 1528 1528 1528 1527 1527 1527 1527 1527
1526 1527 1527 1527 1528 1528 1528 1529 1529 1529 1530 1530 1529 1530 1529 1530 1530 1530 1530 1530 1530 1530 1530 1529 1529 1529 1529 1528 1528 1528 1528 1527 1527 1527 1527 1526 1526 1525 1525 1525 1525 1525 1525
1524 1524 1525 1525 1526 1526 1527 1527 1527 1528 1528 1528 1528 1528 1528 1528 1528 1528 1528 1528 1528 1528 1527 1527 1527 1526 1526 1526 1526 1525 1525 1525 1525 1524 1524 1524 1523 1523 1523 1523 1522 1522 1522
1522 1522 1523 1523 1524 1524 1525 1525 1526 1526 1526 1526 1526 1526 1526 1526 1525 1526 1526 1525 1525 1525 1525 1525 1525 1524 1524 1523 1523 1523 1522 1522 1522 1522 1522 1521 1521 1521 1521 1520 1520 1520 1520
1520 1520 1521 1521 1522 1522 1523 1523 1524 1524 1524 1524 1524 1524 1524 1523 1523 1523 1523 1523 1523 1523 1523 1522 1522 1522 1521 1521 1520 1520 1520 1520 1520 1520 1519 1519 1518 1518 1518 1518 1518 1518 1518
1518 1519 1519 1519 1520 1520 1520 1521 1521 1521 1521 1522 1521 1521 1521 1521 1521 1521 1520 1520 1520 1520 1520 1520 1519 1519 1519 1518 1518 1518 1517 1517 1517 1517 1517 1516 1516 1515 1515 1515 1515 1515 1516
1515 1516 1517 1517 1517 1517 1518 1519 1519 1519 1519 1519 1519 1519 1519 1519 1518 1518 1518 1518 1517 1517 1517 1517 1517 1516 1516 1515 1515 1515 1515 1514 1514 1514 1514 1513 1513 1512 1512 1512 1513 1513 1513
1513 1513 1514 1515 1515 1515 1516 1516 1516 1516 1516 1516 1516 1516 1516 1516 1516 1515 1515 1514 1514 1514 1514 1513 1513 1513 1513 1512 1512 1511 1511 1511 1510 1511 1511 1511 1510 1510 1510 1510 1510 1511 1511
1510 1511 1512 1512 1513 1513 1513 1513 1514 1513 1513 1513 1513 1513 1513 1513 1513 1512 1512 1511 1511 1510 1510 1510 1510 1509 1509 1508 1508 1508 1507 1507 1506 1506 1507 1507 1507 1507 1507 1507 1507 1508 1508
1508 1509 1509 1510 1510 1510 1510 1511 1511 1510 1510 1510 1510 1510 1510 1509 1509 1509 1508 1507 1506 1506 1507 1506 1505 1505 1504 1504 1504 1503 1503 1503 1503 1503 1503 1503 1503 1503 1503 1503 1503 1504 1504